WXM80 ListenWXM80 Stop

You find our weather info also at:

UK Metoffice

WeatherCloud

Weather Underground

Northeastern Weather Network

AWEKAS

Citizen Weather Observer Program (CWOP)

HAMweather, WeatherForYou, PWS Weather


Weather Underground History page Text

Daily Summary for May 27, 2017 Units:  Metric    English   Both
« Previous Day
Next Day »
Daily Weekly Monthly Yearly Custom
  High: Low: Average:
Temperature: 25.3 °C 12.6 °C 17.6 °C
Dew Point: 17.2 °C 11.3 °C 14 °C
Humidity: 96 % 54 % 80 %
Wind Speed: 10.5 km/h 0 km/h 1.9 km/h
Wind Gust: 20.4 km/h - -
Wind:- - South
Pressure: 1012.1 hPa 1007 hPa -
Precipitation: 0 mm    
Historical Graphs
 
 
Tabular Data for May 27, 2017
Time Temperature Dew Point Pressure Wind Wind Speed Wind Gust Humidity Rainfall Rate (Hourly)
00:00 16.6 °C 13.2 °C 1007 hPa NW 0.5 km/h 3.7 km/h 80 % 0 mm
00:05 16.5 °C 13.2 °C 1007.3 hPa NW 1.3 km/h 3.7 km/h 81 % 0 mm
00:10 16.3 °C 13.1 °C 1007.3 hPa Calm     81 % 0 mm
00:15 16.3 °C 13 °C 1007.3 hPa NW 0.2 km/h   81 % 0 mm
00:20 16.2 °C 12.9 °C 1007.3 hPa NW 0.8 km/h 1.9 km/h 81 % 0 mm
00:25 16.1 °C 13 °C 1007.3 hPa NW 0.6 km/h 3.7 km/h 82 % 0 mm
00:30 15.9 °C 12.9 °C 1007.3 hPa NW 1.1 km/h 1.9 km/h 82 % 0 mm
00:35 15.8 °C 12.9 °C 1007.3 hPa NNW 1.3 km/h 5.6 km/h 83 % 0 mm
00:36 15.8 °C 12.9 °C 1007.7 hPa Calm   3.7 km/h 83 % 0 mm
00:41 15.8 °C 12.9 °C 1007.7 hPa Calm     83 % 0 mm
00:46 15.7 °C 12.8 °C 1007.7 hPa NNW 0.5 km/h 1.9 km/h 83 % 0 mm
00:51 15.6 °C 12.7 °C 1007.7 hPa Calm     83 % 0 mm
00:56 15.6 °C 12.7 °C 1007.7 hPa Calm     83 % 0 mm
01:01 15.5 °C 12.8 °C 1007.7 hPa Calm     84 % 0 mm
01:06 15.4 °C 12.7 °C 1007.7 hPa Calm     84 % 0 mm
01:11 15.3 °C 12.7 °C 1007.7 hPa Calm     84 % 0 mm
01:16 15.3 °C 12.8 °C 1008 hPa NNW 0.3 km/h   85 % 0 mm
01:21 15.2 °C 12.7 °C 1008 hPa Calm     85 % 0 mm
01:26 15.2 °C 12.8 °C 1008 hPa North 0.2 km/h 1.9 km/h 86 % 0 mm
01:31 15.1 °C 12.9 °C 1008 hPa Calm     87 % 0 mm
01:36 15.1 °C 12.9 °C 1008 hPa Calm   1.9 km/h 87 % 0 mm
01:41 15.1 °C 12.9 °C 1008 hPa Calm   3.7 km/h 87 % 0 mm
01:46 15 °C 13 °C 1008 hPa North 0.5 km/h 1.9 km/h 88 % 0 mm
01:51 14.9 °C 13.2 °C 1008 hPa North 1.4 km/h   89 % 0 mm
01:56 14.9 °C 13.2 °C 1008 hPa NNW 0.6 km/h 1.9 km/h 89 % 0 mm
02:01 14.9 °C 13.1 °C 1008 hPa NNW 0.2 km/h   89 % 0 mm
02:07 14.9 °C 13.1 °C 1008 hPa NNW 0.8 km/h 1.9 km/h 89 % 0 mm
02:12 14.8 °C 13.1 °C 1008 hPa Calm   3.7 km/h 89 % 0 mm
02:17 14.8 °C 13.1 °C 1008 hPa NW 1.1 km/h 5.6 km/h 89 % 0 mm
02:22 14.8 °C 13.1 °C 1008 hPa Calm   1.9 km/h 89 % 0 mm
02:27 14.8 °C 13 °C 1008 hPa NW 0.5 km/h 1.9 km/h 89 % 0 mm
02:32 14.8 °C 13 °C 1008 hPa Calm     89 % 0 mm
02:42 14.7 °C 12.9 °C 1008 hPa Calm   1.9 km/h 89 % 0 mm
02:47 14.7 °C 12.9 °C 1008 hPa Calm     89 % 0 mm
02:52 14.7 °C 12.9 °C 1008 hPa NW 0.2 km/h 1.9 km/h 89 % 0 mm
02:57 14.7 °C 12.9 °C 1008 hPa Calm     89 % 0 mm
03:02 14.6 °C 12.8 °C 1008 hPa Calm   1.9 km/h 89 % 0 mm
03:07 14.6 °C 12.8 °C 1008 hPa Calm     89 % 0 mm
03:12 14.5 °C 12.7 °C 1008.4 hPa NW 0.5 km/h 1.9 km/h 89 % 0 mm
03:17 14.4 °C 12.7 °C 1008.4 hPa Calm   3.7 km/h 89 % 0 mm
03:22 14.4 °C 12.6 °C 1008.4 hPa Calm   1.9 km/h 89 % 0 mm
03:27 14.3 °C 12.7 °C 1008.4 hPa Calm     90 % 0 mm
03:32 14.3 °C 12.7 °C 1008.4 hPa Calm     90 % 0 mm
03:37 14.3 °C 12.7 °C 1008.4 hPa Calm     90 % 0 mm
03:42 14.2 °C 12.6 °C 1008.4 hPa Calm     90 % 0 mm
03:47 14.2 °C 12.4 °C 1008.4 hPa Calm     89 % 0 mm
03:52 14.1 °C 12.4 °C 1008.4 hPa Calm     90 % 0 mm
03:57 14 °C 12.4 °C 1008.4 hPa Calm     90 % 0 mm
04:02 13.9 °C 12.3 °C 1008.4 hPa Calm     90 % 0 mm
04:07 13.9 °C 12.3 °C 1008.4 hPa Calm     90 % 0 mm
04:13 13.8 °C 12.2 °C 1008.7 hPa Calm   1.9 km/h 90 % 0 mm
04:18 13.8 °C 12.2 °C 1008.7 hPa NW 1 km/h 1.9 km/h 90 % 0 mm
04:23 13.7 °C 12.3 °C 1008.7 hPa NW 0.2 km/h 3.7 km/h 91 % 0 mm
04:28 13.7 °C 12.2 °C 1008.7 hPa Calm     91 % 0 mm
04:33 13.6 °C 12.2 °C 1008.7 hPa Calm     91 % 0 mm
04:38 13.6 °C 12.1 °C 1008.7 hPa Calm   3.7 km/h 91 % 0 mm
04:43 13.5 °C 12.1 °C 1008.7 hPa Calm     91 % 0 mm
04:48 13.4 °C 12 °C 1008.7 hPa Calm   1.9 km/h 91 % 0 mm
04:53 13.4 °C 11.9 °C 1009 hPa NW 0.2 km/h 1.9 km/h 91 % 0 mm
04:58 13.4 °C 11.9 °C 1009 hPa Calm     91 % 0 mm
05:03 13.3 °C 11.9 °C 1009 hPa Calm     91 % 0 mm
05:08 13.3 °C 11.8 °C 1009.4 hPa Calm     91 % 0 mm
05:13 13.2 °C 11.8 °C 1009 hPa Calm     91 % 0 mm
05:18 13.2 °C 11.7 °C 1009 hPa Calm     91 % 0 mm
05:23 13.1 °C 11.6 °C 1009.4 hPa Calm     91 % 0 mm
05:28 13 °C 11.6 °C 1009.4 hPa Calm     91 % 0 mm
05:33 12.9 °C 11.5 °C 1009.4 hPa Calm     91 % 0 mm
05:38 12.9 °C 11.4 °C 1009.4 hPa NW 0.2 km/h 1.9 km/h 91 % 0 mm
05:43 12.8 °C 11.4 °C 1009.7 hPa Calm     91 % 0 mm
05:48 12.8 °C 11.5 °C 1009.7 hPa Calm     92 % 0 mm
05:50 12.7 °C 11.4 °C 1009.7 hPa Calm     92 % 0 mm
05:55 12.7 °C 11.4 °C 1010 hPa Calm     92 % 0 mm
06:00 12.7 °C 11.4 °C 1009.7 hPa Calm     92 % 0 mm
06:05 12.6 °C 11.3 °C 1009.7 hPa Calm     92 % 0 mm
06:10 12.6 °C 11.3 °C 1010 hPa Calm     92 % 0 mm
06:15 12.6 °C 11.3 °C 1010 hPa Calm     92 % 0 mm
06:20 12.7 °C 11.6 °C 1010 hPa Calm     93 % 0 mm
06:23 12.7 °C 11.6 °C 1010 hPa Calm     93 % 0 mm
06:28 12.8 °C 11.8 °C 1010 hPa Calm     94 % 0 mm
06:33 12.8 °C 11.9 °C 1010 hPa Calm     94 % 0 mm
06:38 12.9 °C 12 °C 1010.4 hPa Calm     94 % 0 mm
06:43 13.1 °C 12.1 °C 1010.4 hPa Calm     94 % 0 mm
06:48 13.2 °C 12.4 °C 1010 hPa Calm     95 % 0 mm
06:53 13.3 °C 12.6 °C 1010.4 hPa North 0.2 km/h 1.9 km/h 95 % 0 mm
06:58 13.5 °C 12.7 °C 1010.4 hPa NNW 0.3 km/h 5.6 km/h 95 % 0 mm
07:03 13.7 °C 13.1 °C 1010.4 hPa NNW 0.3 km/h 3.2 km/h 96 % 0 mm
07:08 13.8 °C 13.2 °C 1010 hPa WNW 0.3 km/h 3.7 km/h 96 % 0 mm
07:13 13.9 °C 13.3 °C 1010 hPa WNW 2.6 km/h 5.6 km/h 96 % 0 mm
07:18 14.1 °C 13.5 °C 1010 hPa WNW 0.3 km/h 1.9 km/h 96 % 0 mm
07:23 14.2 °C 13.6 °C 1010 hPa WNW 0.2 km/h 1.9 km/h 96 % 0 mm
07:28 14.4 °C 13.8 °C 1010 hPa Calm     96 % 0 mm
07:33 14.5 °C 13.9 °C 1010 hPa WNW 1.8 km/h 5.6 km/h 96 % 0 mm
07:38 14.6 °C 14 °C 1010 hPa WNW 3.4 km/h 5.6 km/h 96 % 0 mm
07:43 14.7 °C 14.1 °C 1010 hPa NW 3.2 km/h 6.4 km/h 96 % 0 mm
07:48 14.8 °C 14.2 °C 1010 hPa WNW 1.3 km/h 3.7 km/h 96 % 0 mm
07:53 14.9 °C 14.3 °C 1010 hPa NW 3.1 km/h 6.4 km/h 96 % 0 mm
07:58 15 °C 14.2 °C 1010 hPa Calm   5.6 km/h 95 % 0 mm
07:59 15 °C 14.2 °C 1010 hPa NW 0.5 km/h 3.2 km/h 95 % 0 mm
08:04 15.1 °C 14.3 °C 1010.4 hPa NNW 1.9 km/h 4.8 km/h 95 % 0 mm
08:09 15.2 °C 14.3 °C 1010 hPa North 0.3 km/h 1.9 km/h 94 % 0 mm
08:14 15.3 °C 14.2 °C 1010.4 hPa NW 1.6 km/h 5.6 km/h 93 % 0 mm
08:19 15.6 °C 14.4 °C 1010 hPa NW 1.6 km/h 3.2 km/h 93 % 0 mm
08:24 15.7 °C 14.4 °C 1010 hPa NW 1.3 km/h 5.6 km/h 92 % 0 mm
08:29 15.9 °C 14.4 °C 1010.4 hPa NW 0.6 km/h 5.6 km/h 91 % 0 mm
08:34 16.1 °C 14.4 °C 1010.4 hPa WNW 0.2 km/h 1.9 km/h 90 % 0 mm
08:36 16.2 °C 14.5 °C 1010 hPa Calm   6.4 km/h 90 % 0 mm
08:41 16.3 °C 14.3 °C 1010.4 hPa WNW 1.6 km/h 6.4 km/h 88 % 0 mm
08:46 16.4 °C 14.3 °C 1010.4 hPa WNW 1.6 km/h 8 km/h 87 % 0 mm
08:51 16.6 °C 14.4 °C 1010.4 hPa WNW 1.6 km/h 6.4 km/h 87 % 0 mm
08:56 16.8 °C 14.2 °C 1010 hPa NW 3.2 km/h 8 km/h 85 % 0 mm
09:01 16.9 °C 14.2 °C 1010.4 hPa WNW 3.9 km/h 8 km/h 84 % 0 mm
09:06 17.1 °C 14 °C 1010.4 hPa NW 2.1 km/h 5.6 km/h 82 % 0 mm
09:11 17.2 °C 13.9 °C 1010.4 hPa WNW 1.9 km/h 5.6 km/h 81 % 0 mm
09:16 17.3 °C 14 °C 1010.4 hPa NE 2.3 km/h 5.6 km/h 81 % 0 mm
09:21 17.4 °C 14.1 °C 1010 hPa North 1.3 km/h 3.7 km/h 81 % 0 mm
09:26 17.6 °C 14.4 °C 1010 hPa NW 2.4 km/h 5.6 km/h 82 % 0 mm
09:31 17.7 °C 14.4 °C 1010.4 hPa NW 1 km/h 1.9 km/h 81 % 0 mm
09:36 17.9 °C 14.4 °C 1010 hPa WNW 2.7 km/h 7.4 km/h 80 % 0 mm
09:41 18.2 °C 14.7 °C 1010.4 hPa Calm     80 % 0 mm
09:46 18.4 °C 14.7 °C 1010 hPa NW 1.9 km/h 3.7 km/h 79 % 0 mm
09:51 18.9 °C 14.8 °C 1010 hPa NNW 5.3 km/h 6.4 km/h 77 % 0 mm
09:56 19.3 °C 14.7 °C 1010 hPa North 3.9 km/h 6.4 km/h 75 % 0 mm
10:01 19.7 °C 15.2 °C 1010.4 hPa NNE 5.3 km/h 9.3 km/h 75 % 0 mm
10:06 20.2 °C 14.9 °C 1010.4 hPa NW 5.8 km/h 9.3 km/h 72 % 0 mm
10:11 20.6 °C 15.3 °C 1010.4 hPa NNE 1.6 km/h 3.2 km/h 72 % 0 mm
10:16 20.9 °C 15 °C 1010.4 hPa NNW 1.1 km/h 5.6 km/h 69 % 0 mm
10:21 21.3 °C 15.3 °C 1010.4 hPa NNW 0.2 km/h 3.7 km/h 69 % 0 mm
10:26 21.7 °C 15.9 °C 1010 hPa ENE 0.2 km/h 3.2 km/h 70 % 0 mm
10:31 22 °C 15.6 °C 1010 hPa North 1.4 km/h 5.6 km/h 67 % 0 mm
10:36 22.2 °C 14.8 °C 1010 hPa ENE 4 km/h 5.6 km/h 63 % 0 mm
10:42 22.4 °C 16.2 °C 1010 hPa NNW 2.4 km/h 6.4 km/h 68 % 0 mm
10:47 22.7 °C 16 °C 1010 hPa ENE 0.3 km/h 5.6 km/h 66 % 0 mm
10:52 22.9 °C 15.8 °C 1010 hPa North 1.4 km/h 5.6 km/h 64 % 0 mm
10:57 23.2 °C 15.6 °C 1010 hPa ENE 3.4 km/h 6.4 km/h 62 % 0 mm
11:02 23.3 °C 15.9 °C 1010 hPa North 4.3 km/h 8 km/h 63 % 0 mm
11:07 23.7 °C 16.7 °C 1010 hPa NNW 2.3 km/h 4.8 km/h 65 % 0 mm
11:12 23.8 °C 16.1 °C 1010 hPa North 3.7 km/h 7.4 km/h 62 % 0 mm
11:17 24.1 °C 16.1 °C 1010 hPa NNE 0.3 km/h 1.9 km/h 61 % 0 mm
11:22 24.1 °C 16.1 °C 1010.4 hPa NW 2.4 km/h 5.6 km/h 61 % 0 mm
11:27 24.1 °C 15.3 °C 1010 hPa North 1.1 km/h 1.9 km/h 58 % 0 mm
11:32 24.2 °C 15.4 °C 1010.4 hPa WNW 2.7 km/h 4.8 km/h 58 % 0 mm
11:37 24.3 °C 16.6 °C 1010.4 hPa West 2.6 km/h 5.6 km/h 62 % 0 mm
11:42 24.4 °C 16.2 °C 1010 hPa WNW 1.1 km/h 3.7 km/h 60 % 0 mm
11:47 24.5 °C 15.2 °C 1010 hPa SSW 1.6 km/h 5.6 km/h 56 % 0 mm
11:52 24.6 °C 15.2 °C 1010 hPa NNW 3.5 km/h 7.4 km/h 56 % 0 mm
11:57 24.7 °C 16.9 °C 1010.4 hPa North 4 km/h 6.4 km/h 62 % 0 mm
12:02 24.7 °C 17.2 °C 1010.4 hPa NE 2.4 km/h 4.8 km/h 63 % 0 mm
12:08 24.9 °C 16.8 °C 1010 hPa ENE 2.9 km/h 3.7 km/h 61 % 0 mm
12:13 25 °C 15.6 °C 1010.4 hPa North 4.3 km/h 7.4 km/h 56 % 0 mm
12:18 25.1 °C 15.4 °C 1010.4 hPa NW 1.6 km/h 7.4 km/h 55 % 0 mm
12:23 25.2 °C 16.1 °C 1010.4 hPa North 2.1 km/h 8 km/h 57 % 0 mm
12:28 25.3 °C 15.9 °C 1010.4 hPa North 5 km/h 8 km/h 56 % 0 mm
12:33 25.2 °C 15.3 °C 1010 hPa NNE 5.5 km/h 7.4 km/h 54 % 0 mm
12:38 25.3 °C 16.2 °C 1010 hPa ENE 6.3 km/h 9.3 km/h 57 % 0 mm
12:43 25.3 °C 15.9 °C 1010 hPa NE 7.4 km/h 12.9 km/h 56 % 0 mm
12:48 24.9 °C 15.8 °C 1010 hPa ENE 4.8 km/h 7.4 km/h 57 % 0 mm
12:53 24.5 °C 15.2 °C 1010 hPa ENE 4.2 km/h 5.6 km/h 56 % 0 mm
12:58 24.2 °C 15.2 °C 1010 hPa ENE 6.1 km/h 8 km/h 57 % 0 mm
13:03 23.9 °C 15.2 °C 1010.4 hPa ENE 4 km/h 6.4 km/h 58 % 0 mm
13:08 23.8 °C 15 °C 1010 hPa ENE 5 km/h 6.4 km/h 58 % 0 mm
13:13 23.7 °C 15.2 °C 1010 hPa NE 2.6 km/h 5.6 km/h 59 % 0 mm
13:18 23.1 °C 14.7 °C 1010 hPa ENE 3.4 km/h 5.6 km/h 59 % 0 mm
13:23 22.4 °C 14.8 °C 1010 hPa NE 1.6 km/h 5.6 km/h 62 % 0 mm
13:28 22.1 °C 15.7 °C 1010 hPa Calm   1.9 km/h 67 % 0 mm
13:33 22 °C 15.6 °C 1010.4 hPa Calm   1.9 km/h 67 % 0 mm
13:38 21.9 °C 15.3 °C 1010.4 hPa NE 1.6 km/h 3.2 km/h 66 % 0 mm
13:43 21.7 °C 15.9 °C 1010.4 hPa NE 2.1 km/h 4.8 km/h 70 % 0 mm
13:48 21.3 °C 15.8 °C 1010.4 hPa NE 3.5 km/h 5.6 km/h 71 % 0 mm
13:53 21 °C 15.3 °C 1010.4 hPa NE 2.3 km/h 5.6 km/h 70 % 0 mm
13:58 20.7 °C 15.2 °C 1010 hPa NE 0.2 km/h 1.9 km/h 71 % 0 mm
14:03 20.6 °C 15.6 °C 1010.4 hPa Calm     73 % 0 mm
14:08 20.7 °C 15.4 °C 1010.4 hPa Calm     72 % 0 mm
14:13 20.6 °C 15.6 °C 1010.4 hPa Calm     73 % 0 mm
14:18 20.6 °C 15.8 °C 1010.4 hPa NE 0.5 km/h 3.2 km/h 74 % 0 mm
14:24 20.6 °C 15.8 °C 1010.4 hPa NE 0.3 km/h 5.6 km/h 74 % 0 mm
14:29 20.4 °C 15.6 °C 1010.4 hPa Calm     74 % 0 mm
14:34 20.3 °C 16.1 °C 1010 hPa Calm     77 % 0 mm
14:39 20.3 °C 15.9 °C 1010.4 hPa ESE 2.6 km/h 5.6 km/h 76 % 0 mm
14:44 20.3 °C 15.9 °C 1010 hPa SE 2.4 km/h 5.6 km/h 76 % 0 mm
14:49 20.3 °C 15.5 °C 1010 hPa SE 0.2 km/h   74 % 0 mm
14:54 20.3 °C 15.5 °C 1010.4 hPa SE 5.8 km/h 9.3 km/h 74 % 0 mm
14:59 20.3 °C 15.3 °C 1010.4 hPa SE 0.6 km/h 3.2 km/h 73 % 0 mm
15:04 20.3 °C 15.3 °C 1010.4 hPa SE 0.5 km/h 3.2 km/h 73 % 0 mm
15:09 20.3 °C 15.9 °C 1010.4 hPa Calm     76 % 0 mm
15:14 20.2 °C 15.4 °C 1010 hPa Calm     74 % 0 mm
15:19 20.2 °C 15.4 °C 1010.4 hPa Calm   1.9 km/h 74 % 0 mm
15:24 20.2 °C 15.6 °C 1010.4 hPa Calm     75 % 0 mm
15:29 20.2 °C 15.2 °C 1010.4 hPa Calm   3.7 km/h 73 % 0 mm
15:34 20.2 °C 15.6 °C 1010.4 hPa Calm     75 % 0 mm
15:40 20.1 °C 15.3 °C 1010.4 hPa SE 0.2 km/h 1.9 km/h 74 % 0 mm
15:45 20.1 °C 15.3 °C 1010.4 hPa Calm     74 % 0 mm
15:50 20.2 °C 15.6 °C 1010 hPa Calm     75 % 0 mm
15:55 20.2 °C 16 °C 1010 hPa SE 1 km/h 3.7 km/h 77 % 0 mm
15:56 20.2 °C 15.8 °C 1010 hPa Calm     76 % 0 mm
16:01 20.3 °C 16.1 °C 1010 hPa Calm     77 % 0 mm
16:06 20.3 °C 16.2 °C 1010 hPa Calm     77 % 0 mm
16:11 20.4 °C 15.8 °C 1010 hPa Calm     75 % 0 mm
16:16 20.4 °C 15.9 °C 1010.4 hPa SE 0.2 km/h 1.9 km/h 75 % 0 mm
16:21 20.4 °C 15.4 °C 1010.4 hPa South 0.8 km/h 3.7 km/h 73 % 0 mm
16:26 20.6 °C 15.6 °C 1010.4 hPa Calm   1.9 km/h 73 % 0 mm
16:31 20.6 °C 15.8 °C 1010.4 hPa Calm   1.9 km/h 74 % 0 mm
16:36 20.7 °C 15.7 °C 1010.4 hPa South 0.8 km/h 3.7 km/h 73 % 0 mm
16:42 20.7 °C 15.7 °C 1010 hPa SSE 4.3 km/h 4.8 km/h 73 % 0 mm
16:47 20.8 °C 16 °C 1010.4 hPa SSE 1.1 km/h 5.6 km/h 74 % 0 mm
16:52 20.7 °C 15.3 °C 1010.4 hPa SE 3.5 km/h 9.3 km/h 71 % 0 mm
16:57 20.6 °C 15.2 °C 1010.4 hPa SE 4.5 km/h 9.7 km/h 71 % 0 mm
16:59 20.5 °C 15.1 °C 1010.4 hPa SSE 5.5 km/h 13 km/h 71 % 0 mm
17:04 20.3 °C 15.1 °C 1010.4 hPa SSE 5.5 km/h 11.1 km/h 72 % 0 mm
17:09 20.1 °C 14.8 °C 1010.4 hPa SSE 7.6 km/h 16.7 km/h 72 % 0 mm
17:14 19.9 °C 15.2 °C 1010.4 hPa SE 2.1 km/h 11.1 km/h 74 % 0 mm
17:19 19.8 °C 14.8 °C 1010.4 hPa SE 4.8 km/h 9.3 km/h 73 % 0 mm
17:24 19.7 °C 14.9 °C 1010.4 hPa SSW 5.5 km/h 11.1 km/h 74 % 0 mm
17:29 19.7 °C 14.7 °C 1010.4 hPa SSE 5.6 km/h 9.7 km/h 73 % 0 mm
17:34 19.4 °C 14.5 °C 1010.4 hPa SSE 3.7 km/h 5.6 km/h 73 % 0 mm
17:39 19.2 °C 14.3 °C 1010.4 hPa SE 5.5 km/h 11.1 km/h 73 % 0 mm
17:44 19.1 °C 14.3 °C 1010.4 hPa SE 1.8 km/h 5.6 km/h 74 % 0 mm
17:49 18.9 °C 14.2 °C 1010.7 hPa SSE 6.3 km/h 14.8 km/h 74 % 0 mm
17:54 18.8 °C 14.3 °C 1010.7 hPa SE 7.2 km/h 16.7 km/h 75 % 0 mm
17:59 18.7 °C 14.3 °C 1010.7 hPa SE 4.8 km/h 9.3 km/h 76 % 0 mm
18:04 18.6 °C 14.2 °C 1010.7 hPa SSE 5.8 km/h 13 km/h 76 % 0 mm
18:09 18.4 °C 14.1 °C 1010.7 hPa South 6.6 km/h 14.8 km/h 76 % 0 mm
18:14 18.3 °C 14.2 °C 1010.7 hPa SE 4.8 km/h 11.1 km/h 77 % 0 mm
18:19 18.3 °C 14.2 °C 1010.7 hPa SE 1.3 km/h 7.4 km/h 77 % 0 mm
18:24 18.2 °C 14.1 °C 1010.7 hPa SSE 5.5 km/h 9.3 km/h 77 % 0 mm
18:29 18.2 °C 14.3 °C 1011.1 hPa SE 5.5 km/h 13 km/h 78 % 0 mm
18:34 18.1 °C 14.2 °C 1011.1 hPa SE 0.3 km/h 1.9 km/h 78 % 0 mm
18:39 18 °C 14.3 °C 1011.1 hPa SE 2.9 km/h 5.6 km/h 79 % 0 mm
18:44 17.9 °C 14.1 °C 1011.1 hPa SSE 3.5 km/h 16.1 km/h 78 % 0 mm
18:49 17.8 °C 13.9 °C 1011.1 hPa SE 5.1 km/h 7.4 km/h 78 % 0 mm
18:54 17.8 °C 13.9 °C 1011.1 hPa SSE 6.6 km/h 11.1 km/h 78 % 0 mm
18:59 17.8 °C 13.9 °C 1011.1 hPa SE 6.4 km/h 16.7 km/h 78 % 0 mm
19:04 17.7 °C 13.8 °C 1011.1 hPa SSE 2.9 km/h 11.3 km/h 78 % 0 mm
19:09 17.7 °C 13.8 °C 1011.1 hPa SE 4.5 km/h 16.7 km/h 78 % 0 mm
19:10 17.7 °C 13.8 °C 1011.1 hPa SE 8 km/h 16.7 km/h 78 % 0 mm
19:15 17.6 °C 13.7 °C 1011.1 hPa SE 6.1 km/h 11.1 km/h 78 % 0 mm
19:20 17.5 °C 13.6 °C 1011.1 hPa SSE 7.4 km/h 16.7 km/h 78 % 0 mm
19:26 17.4 °C 13.6 °C 1011.1 hPa South 7.2 km/h 13 km/h 78 % 0 mm
19:31 17.4 °C 13.7 °C 1011.1 hPa SSE 4.8 km/h 14.5 km/h 79 % 0 mm
19:36 17.3 °C 13.7 °C 1011.1 hPa SE 4.8 km/h 16.1 km/h 79 % 0 mm
19:41 17.3 °C 13.6 °C 1011.1 hPa SE 2.9 km/h 7.4 km/h 79 % 0 mm
19:46 17.3 °C 13.6 °C 1011.1 hPa SE 3.7 km/h 9.3 km/h 79 % 0 mm
19:51 17.2 °C 13.7 °C 1011.1 hPa SE 3.9 km/h 8 km/h 80 % 0 mm
19:56 17.2 °C 13.5 °C 1011.1 hPa ESE 6 km/h 13 km/h 79 % 0 mm
20:01 17.1 °C 13.4 °C 1011.1 hPa SE 0.8 km/h 7.4 km/h 79 % 0 mm
20:06 17.1 °C 13.4 °C 1011.1 hPa SE 3.7 km/h 9.3 km/h 79 % 0 mm
20:11 17.1 °C 13.6 °C 1011.1 hPa SSE 10.5 km/h 16.7 km/h 80 % 0 mm
20:16 17 °C 13.5 °C 1011.1 hPa South 6 km/h 13 km/h 80 % 0 mm
20:21 16.9 °C 13.4 °C 1011.1 hPa SSE 4.7 km/h 11.1 km/h 80 % 0 mm
20:26 16.9 °C 13.4 °C 1011.1 hPa SSE 2.9 km/h 7.4 km/h 80 % 0 mm
20:31 16.8 °C 13.3 °C 1011.1 hPa SE 3.7 km/h 8 km/h 80 % 0 mm
20:36 16.8 °C 13.3 °C 1011.1 hPa SSE 3.4 km/h 9.3 km/h 80 % 0 mm
20:41 16.8 °C 13.5 °C 1011.4 hPa SSE 0.6 km/h 9.3 km/h 81 % 0 mm
20:46 16.7 °C 13.4 °C 1011.4 hPa SE 5.6 km/h 11.3 km/h 81 % 0 mm
20:51 16.7 °C 13.4 °C 1011.4 hPa SSE 6.1 km/h 6.4 km/h 81 % 0 mm
20:56 16.7 °C 13.4 °C 1011.4 hPa SSE 2.4 km/h 5.6 km/h 81 % 0 mm
21:01 16.7 °C 13.4 °C 1011.4 hPa SSE 4 km/h 7.4 km/h 81 % 0 mm
21:06 16.6 °C 13.3 °C 1011.4 hPa SSE 4.5 km/h 7.4 km/h 81 % 0 mm
21:11 16.6 °C 13.3 °C 1011.7 hPa SSE 4.8 km/h 9.3 km/h 81 % 0 mm
21:16 16.6 °C 13.3 °C 1011.7 hPa South 1.9 km/h 5.6 km/h 81 % 0 mm
21:21 16.5 °C 13.2 °C 1011.7 hPa SE 0.2 km/h 11.1 km/h 81 % 0 mm
21:26 16.5 °C 13.2 °C 1011.7 hPa SSW 5.1 km/h 11.1 km/h 81 % 0 mm
21:31 16.4 °C 13.2 °C 1011.7 hPa SSE 1.1 km/h 11.1 km/h 81 % 0 mm
21:37 16.4 °C 13.2 °C 1011.7 hPa SSE 1.9 km/h 5.6 km/h 81 % 0 mm
21:42 16.4 °C 13.2 °C 1011.7 hPa SE 2.3 km/h 7.4 km/h 81 % 0 mm
21:47 16.4 °C 13.1 °C 1011.7 hPa South 6.1 km/h 11.1 km/h 81 % 0 mm
21:52 16.4 °C 13.1 °C 1011.7 hPa SSE 4.7 km/h 7.4 km/h 81 % 0 mm
21:57 16.3 °C 13.1 °C 1012.1 hPa SSE 8.5 km/h 20.4 km/h 81 % 0 mm
22:02 16.3 °C 13.3 °C 1012.1 hPa SSE 4.5 km/h 11.1 km/h 82 % 0 mm
22:07 16.3 °C 13.3 °C 1012.1 hPa SSE 3.2 km/h 9.3 km/h 82 % 0 mm
22:12 16.3 °C 13.3 °C 1012.1 hPa SSE 5.5 km/h 11.1 km/h 82 % 0 mm
22:17 16.3 °C 13.2 °C 1012.1 hPa SSE 5.1 km/h 9.3 km/h 82 % 0 mm
22:22 16.3 °C 13.2 °C 1012.1 hPa SSE 0.8 km/h 3.7 km/h 82 % 0 mm
22:27 16.3 °C 13.4 °C 1012.1 hPa South 0.8 km/h 5.6 km/h 83 % 0 mm
22:32 16.3 °C 13.4 °C 1012.1 hPa SE 1.9 km/h 3.7 km/h 83 % 0 mm
22:37 16.3 °C 13.4 °C 1012.1 hPa SE 4.3 km/h 8 km/h 83 % 0 mm
22:43 16.2 °C 13.5 °C 1012.1 hPa SE 2.4 km/h 3.7 km/h 84 % 0 mm
22:48 16.2 °C 13.5 °C 1012.1 hPa SSE 5.3 km/h 8 km/h 84 % 0 mm
22:53 16.2 °C 13.7 °C 1012.1 hPa SE 2.6 km/h 7.4 km/h 85 % 0 mm
22:58 16.2 °C 13.7 °C 1012.1 hPa SSE 2.4 km/h 4.8 km/h 85 % 0 mm
23:03 16.2 °C 13.9 °C 1012.1 hPa SE 0.6 km/h 1.9 km/h 86 % 0 mm
23:04 16.2 °C 13.9 °C 1012.1 hPa Calm   1.9 km/h 86 % 0 mm
23:09 16.2 °C 13.9 °C 1012.1 hPa SE 1.6 km/h 5.6 km/h 86 % 0 mm
23:14 16.2 °C 14.1 °C 1012.1 hPa SSE 1.8 km/h 5.6 km/h 87 % 0 mm
23:19 16.2 °C 14.1 °C 1012.1 hPa SSE 1 km/h 1.9 km/h 87 % 0 mm
23:24 16.2 °C 14 °C 1012.1 hPa SE 1.1 km/h 9.3 km/h 87 % 0 mm
23:29 16.2 °C 14 °C 1012.1 hPa SE 2.7 km/h 11.1 km/h 87 % 0 mm
23:34 16.1 °C 13.9 °C 1011.7 hPa SSE 1 km/h 7.4 km/h 87 % 0 mm
23:39 16.1 °C 13.9 °C 1012.1 hPa SE 1.4 km/h 5.6 km/h 87 % 0 mm
23:44 16.1 °C 14.1 °C 1012.1 hPa SW 1.8 km/h 5.6 km/h 88 % 0 mm
23:49 16.1 °C 14.1 °C 1012.1 hPa SSE 0.5 km/h 1.9 km/h 88 % 0 mm
23:54 16.1 °C 14.1 °C 1012.1 hPa Calm     88 % 0 mm
23:59 16.1 °C 14.1 °C 1012.1 hPa Calm   1.9 km/h 88 % 0 mm
Crab Meadow Weather
Compliments of Weather Underground - 3 mb

Script developed by  Jim McMurry - jmcmurry@mwt.net Adapted for the template by  Wim van der Kuil - Leuven-Template.eu

Extremes: A total of 1,224.5 inches of snow fell over a 12-month period from February 1971 to February 1972 at Paradise, Mt. Ranier, in Washington State.